Year,Month,Day,Hour,Minute,Value (Times are PST for temperature in C)
2013,10,17,00,00,5.70
2013,10,17,00,01,5.70
2013,10,17,00,02,5.70
2013,10,17,00,03,5.60
2013,10,17,00,04,5.60
2013,10,17,00,05,5.60
2013,10,17,00,06,5.60
2013,10,17,00,07,5.60
2013,10,17,00,08,5.60
2013,10,17,00,09,5.50
2013,10,17,00,10,5.50
2013,10,17,00,11,5.50
2013,10,17,00,12,5.40
2013,10,17,00,13,5.40
2013,10,17,00,14,5.40
2013,10,17,00,15,5.40
2013,10,17,00,16,5.40
2013,10,17,00,17,5.40
2013,10,17,00,18,5.40
2013,10,17,00,19,5.40
2013,10,17,00,20,5.40
2013,10,17,00,21,5.40
2013,10,17,00,22,5.40
2013,10,17,00,23,5.40
2013,10,17,00,24,5.40
2013,10,17,00,25,5.40
2013,10,17,00,26,5.40
2013,10,17,00,27,5.30
2013,10,17,00,28,5.30
2013,10,17,00,29,5.30
2013,10,17,00,30,5.30
2013,10,17,00,31,5.30
2013,10,17,00,32,5.30
2013,10,17,00,33,5.30
2013,10,17,00,34,5.30
2013,10,17,00,35,5.30
2013,10,17,00,36,5.30
2013,10,17,00,37,5.30
2013,10,17,00,38,5.30
2013,10,17,00,39,5.30
2013,10,17,00,40,5.30
2013,10,17,00,41,5.30
2013,10,17,00,42,5.30
2013,10,17,00,43,5.30
2013,10,17,00,44,5.30
2013,10,17,00,45,5.30
2013,10,17,00,46,5.20
2013,10,17,00,47,5.20
2013,10,17,00,48,5.20
2013,10,17,00,49,5.20
2013,10,17,00,50,5.20
2013,10,17,00,51,5.20
2013,10,17,00,52,5.10
2013,10,17,00,53,5.10
2013,10,17,00,54,5.10
2013,10,17,00,55,5.10
2013,10,17,00,56,5.10
2013,10,17,00,57,5.10
2013,10,17,00,58,5.10
2013,10,17,00,59,5.10
2013,10,17,01,00,5.10
2013,10,17,01,01,5.10
2013,10,17,01,02,5.00
2013,10,17,01,03,5.00
2013,10,17,01,04,4.90
2013,10,17,01,05,4.90
2013,10,17,01,06,4.90
2013,10,17,01,07,4.90
2013,10,17,01,08,4.80
2013,10,17,01,09,4.80
2013,10,17,01,10,4.80
2013,10,17,01,11,4.90
2013,10,17,01,12,4.90
2013,10,17,01,13,4.90
2013,10,17,01,14,4.90
2013,10,17,01,15,4.90
2013,10,17,01,16,4.90
2013,10,17,01,17,4.90
2013,10,17,01,18,4.90
2013,10,17,01,19,4.90
2013,10,17,01,20,4.90
2013,10,17,01,21,4.90
2013,10,17,01,22,4.80
2013,10,17,01,23,4.80
2013,10,17,01,24,4.80
2013,10,17,01,25,4.80
2013,10,17,01,26,4.80
2013,10,17,01,27,4.80
2013,10,17,01,28,4.80
2013,10,17,01,29,4.80
2013,10,17,01,30,4.80
2013,10,17,01,31,4.80
2013,10,17,01,32,4.80
2013,10,17,01,33,4.70
2013,10,17,01,34,4.70
2013,10,17,01,35,4.70
2013,10,17,01,36,4.70
2013,10,17,01,37,4.70
2013,10,17,01,38,4.70
2013,10,17,01,39,4.70
2013,10,17,01,40,4.70
2013,10,17,01,41,4.60
2013,10,17,01,42,4.60
2013,10,17,01,43,4.60
2013,10,17,01,44,4.60
2013,10,17,01,45,4.60
2013,10,17,01,46,4.60
2013,10,17,01,47,4.60
2013,10,17,01,48,4.60
2013,10,17,01,49,4.50
2013,10,17,01,50,4.50
2013,10,17,01,51,4.50
2013,10,17,01,52,4.50
2013,10,17,01,53,4.50
2013,10,17,01,54,4.40
2013,10,17,01,55,4.40
2013,10,17,01,56,4.40
2013,10,17,01,57,4.40
2013,10,17,01,58,4.40
2013,10,17,01,59,4.40
2013,10,17,02,00,4.40
2013,10,17,02,01,4.40
2013,10,17,02,02,4.40
2013,10,17,02,03,4.40
2013,10,17,02,04,4.30
2013,10,17,02,05,4.30
2013,10,17,02,06,4.30
2013,10,17,02,07,4.30
2013,10,17,02,08,4.30
2013,10,17,02,09,4.30
2013,10,17,02,10,4.30
2013,10,17,02,11,4.30
2013,10,17,02,12,4.30
2013,10,17,02,13,4.30
2013,10,17,02,14,4.30
2013,10,17,02,15,4.30
2013,10,17,02,16,4.30
2013,10,17,02,17,4.20
2013,10,17,02,18,4.20
2013,10,17,02,19,4.20
2013,10,17,02,20,4.20
2013,10,17,02,21,4.20
2013,10,17,02,22,4.20
2013,10,17,02,23,4.20
2013,10,17,02,24,4.20
2013,10,17,02,25,4.20
2013,10,17,02,26,4.20
2013,10,17,02,27,4.20
2013,10,17,02,28,4.20
2013,10,17,02,29,4.10
2013,10,17,02,30,4.10
2013,10,17,02,31,4.10
2013,10,17,02,32,4.10
2013,10,17,02,33,4.10
2013,10,17,02,34,4.10
2013,10,17,02,35,4.10
2013,10,17,02,36,4.10
2013,10,17,02,37,4.00
2013,10,17,02,38,4.00
2013,10,17,02,39,4.00
2013,10,17,02,40,4.00
2013,10,17,02,41,4.00
2013,10,17,02,42,3.90
2013,10,17,02,43,3.90
2013,10,17,02,44,3.90
2013,10,17,02,45,3.90
2013,10,17,02,46,3.90
2013,10,17,02,47,3.90
2013,10,17,02,48,3.90
2013,10,17,02,49,3.90
2013,10,17,02,50,3.90
2013,10,17,02,51,3.90
2013,10,17,02,52,3.90
2013,10,17,02,53,3.80
2013,10,17,02,54,3.80
2013,10,17,02,55,3.80
2013,10,17,02,56,3.80
2013,10,17,02,57,3.80
2013,10,17,02,58,3.80
2013,10,17,02,59,3.80
2013,10,17,03,00,3.80
2013,10,17,03,01,3.80
2013,10,17,03,02,3.80
2013,10,17,03,03,3.80
2013,10,17,03,04,3.70
2013,10,17,03,05,3.70
2013,10,17,03,06,3.70
2013,10,17,03,07,3.70
2013,10,17,03,08,3.70
2013,10,17,03,09,3.70
2013,10,17,03,10,3.70
2013,10,17,03,11,3.70
2013,10,17,03,12,3.70
2013,10,17,03,13,3.70
2013,10,17,03,14,3.70
2013,10,17,03,15,3.80
2013,10,17,03,16,3.80
2013,10,17,03,17,3.80
2013,10,17,03,18,3.80
2013,10,17,03,19,3.80
2013,10,17,03,20,3.80
2013,10,17,03,21,3.80
2013,10,17,03,22,3.80
2013,10,17,03,23,3.80
2013,10,17,03,24,3.80
2013,10,17,03,25,3.80
2013,10,17,03,26,3.70
2013,10,17,03,27,3.70
2013,10,17,03,28,3.70
2013,10,17,03,29,3.70
2013,10,17,03,30,3.70
2013,10,17,03,31,3.70
2013,10,17,03,32,3.70
2013,10,17,03,33,3.70
2013,10,17,03,34,3.70
2013,10,17,03,35,3.70
2013,10,17,03,36,3.70
2013,10,17,03,37,3.70
2013,10,17,03,38,3.70
2013,10,17,03,39,3.70
2013,10,17,03,40,3.70
2013,10,17,03,41,3.60
2013,10,17,03,42,3.60
2013,10,17,03,43,3.60
2013,10,17,03,44,3.60
2013,10,17,03,45,3.60
2013,10,17,03,46,3.60
2013,10,17,03,47,3.60
2013,10,17,03,48,3.60
2013,10,17,03,49,3.60
2013,10,17,03,50,3.60
2013,10,17,03,51,3.60
2013,10,17,03,52,3.60
2013,10,17,03,53,3.60
2013,10,17,03,54,3.60
2013,10,17,03,55,3.60
2013,10,17,03,56,3.60
2013,10,17,03,57,3.60
2013,10,17,03,58,3.60
2013,10,17,03,59,3.60
2013,10,17,04,00,3.60
2013,10,17,04,01,3.60
2013,10,17,04,02,3.60
2013,10,17,04,03,3.60
2013,10,17,04,04,3.60
2013,10,17,04,05,3.60
2013,10,17,04,06,3.60
2013,10,17,04,07,3.60
2013,10,17,04,08,3.70
2013,10,17,04,09,3.70
2013,10,17,04,10,3.70
2013,10,17,04,11,3.70
2013,10,17,04,12,3.70
2013,10,17,04,13,3.70
2013,10,17,04,14,3.70
2013,10,17,04,15,3.60
2013,10,17,04,16,3.60
2013,10,17,04,17,3.60
2013,10,17,04,18,3.60
2013,10,17,04,19,3.60
2013,10,17,04,20,3.60
2013,10,17,04,21,3.60
2013,10,17,04,22,3.60
2013,10,17,04,23,3.60
2013,10,17,04,24,3.60
2013,10,17,04,25,3.60
2013,10,17,04,26,3.60
2013,10,17,04,27,3.60
2013,10,17,04,28,3.60
2013,10,17,04,29,3.60
2013,10,17,04,30,3.60
2013,10,17,04,31,3.60
2013,10,17,04,32,3.60
2013,10,17,04,33,3.60
2013,10,17,04,34,3.60
2013,10,17,04,35,3.60
2013,10,17,04,36,3.60
2013,10,17,04,37,3.60
2013,10,17,04,38,3.60
2013,10,17,04,39,3.60
2013,10,17,04,40,3.60
2013,10,17,04,41,3.50
2013,10,17,04,42,3.50
2013,10,17,04,43,3.50
2013,10,17,04,44,3.50
2013,10,17,04,45,3.50
2013,10,17,04,46,3.40
2013,10,17,04,47,3.40
2013,10,17,04,48,3.40
2013,10,17,04,49,3.40
2013,10,17,04,50,3.40
2013,10,17,04,51,3.40
2013,10,17,04,52,3.40
2013,10,17,04,53,3.40
2013,10,17,04,54,3.40
2013,10,17,04,55,3.40
2013,10,17,04,56,3.30
2013,10,17,04,57,3.30
2013,10,17,04,58,3.30
2013,10,17,04,59,3.30
2013,10,17,05,00,3.30
2013,10,17,05,01,3.30
2013,10,17,05,02,3.30
2013,10,17,05,03,3.30
2013,10,17,05,04,3.30
2013,10,17,05,05,3.30
2013,10,17,05,06,3.30
2013,10,17,05,07,3.30
2013,10,17,05,08,3.30
2013,10,17,05,09,3.30
2013,10,17,05,10,3.30
2013,10,17,05,11,3.30
2013,10,17,05,12,3.30
2013,10,17,05,13,3.20
2013,10,17,05,14,3.20
2013,10,17,05,15,3.20
2013,10,17,05,16,3.20
2013,10,17,05,17,3.20
2013,10,17,05,18,3.20
2013,10,17,05,19,3.20
2013,10,17,05,20,3.20
2013,10,17,05,21,3.20
2013,10,17,05,22,3.10
2013,10,17,05,23,3.10
2013,10,17,05,24,3.10
2013,10,17,05,25,3.10
2013,10,17,05,26,3.10
2013,10,17,05,27,3.10
2013,10,17,05,28,3.10
2013,10,17,05,29,3.10
2013,10,17,05,30,3.10
2013,10,17,05,31,3.10
2013,10,17,05,32,3.20
2013,10,17,05,33,3.20
2013,10,17,05,34,3.20
2013,10,17,05,35,3.20
2013,10,17,05,36,3.20
2013,10,17,05,37,3.20
2013,10,17,05,38,3.20
2013,10,17,05,39,3.20
2013,10,17,05,40,3.20
2013,10,17,05,41,3.20
2013,10,17,05,42,3.20
2013,10,17,05,43,3.20
2013,10,17,05,44,3.20
2013,10,17,05,45,3.20
2013,10,17,05,46,3.20
2013,10,17,05,47,3.20
2013,10,17,05,48,3.20
2013,10,17,05,49,3.20
2013,10,17,05,50,3.20
2013,10,17,05,51,3.20
2013,10,17,05,52,3.20
2013,10,17,05,53,3.10
2013,10,17,05,54,3.10
2013,10,17,05,55,3.10
2013,10,17,05,56,3.10
2013,10,17,05,57,3.10
2013,10,17,05,58,3.10
2013,10,17,05,59,3.10
2013,10,17,06,00,3.10
2013,10,17,06,01,3.00
2013,10,17,06,02,3.00
2013,10,17,06,03,3.00
2013,10,17,06,04,3.00
2013,10,17,06,05,2.90
2013,10,17,06,06,2.90
2013,10,17,06,07,2.90
2013,10,17,06,08,2.90
2013,10,17,06,09,2.90
2013,10,17,06,10,2.90
2013,10,17,06,11,2.90
2013,10,17,06,12,2.90
2013,10,17,06,13,2.80
2013,10,17,06,14,2.80
2013,10,17,06,15,2.80
2013,10,17,06,16,2.80
2013,10,17,06,17,2.80
2013,10,17,06,18,2.80
2013,10,17,06,19,2.80
2013,10,17,06,20,2.80
2013,10,17,06,21,2.80
2013,10,17,06,22,2.80
2013,10,17,06,23,2.80
2013,10,17,06,24,2.80
2013,10,17,06,25,2.80
2013,10,17,06,26,2.80
2013,10,17,06,27,2.80
2013,10,17,06,28,2.80
2013,10,17,06,29,2.80
2013,10,17,06,30,2.80
2013,10,17,06,31,2.80
2013,10,17,06,32,2.80
2013,10,17,06,33,2.80
2013,10,17,06,34,2.80
2013,10,17,06,35,2.80
2013,10,17,06,36,2.80
2013,10,17,06,37,2.80
2013,10,17,06,38,2.80
2013,10,17,06,39,2.80
2013,10,17,06,40,2.80
2013,10,17,06,41,2.80
2013,10,17,06,42,2.80
2013,10,17,06,43,2.80
2013,10,17,06,44,2.80
2013,10,17,06,45,2.80
2013,10,17,06,46,2.80
2013,10,17,06,47,2.80
2013,10,17,06,48,2.80
2013,10,17,06,49,2.80
2013,10,17,06,50,2.80
2013,10,17,06,51,2.80
2013,10,17,06,52,2.80
2013,10,17,06,53,2.80
2013,10,17,06,54,2.80
2013,10,17,06,55,2.80
2013,10,17,06,56,2.80
2013,10,17,06,57,2.80
2013,10,17,06,58,2.80
2013,10,17,06,59,2.80
2013,10,17,07,00,2.80
2013,10,17,07,01,2.80
2013,10,17,07,02,2.80
2013,10,17,07,03,2.80
2013,10,17,07,04,2.80
2013,10,17,07,05,2.80
2013,10,17,07,06,2.80
2013,10,17,07,07,2.80
2013,10,17,07,08,2.80
2013,10,17,07,09,2.80
2013,10,17,07,10,2.80
2013,10,17,07,11,2.80
2013,10,17,07,12,2.80
2013,10,17,07,13,2.80
2013,10,17,07,14,2.80
2013,10,17,07,15,2.70
2013,10,17,07,16,2.70
2013,10,17,07,17,2.70
2013,10,17,07,18,2.70
2013,10,17,07,19,2.70
2013,10,17,07,20,2.60
2013,10,17,07,21,2.60
2013,10,17,07,22,2.60
2013,10,17,07,23,2.60
2013,10,17,07,24,2.60
2013,10,17,07,25,2.60
2013,10,17,07,26,2.50
2013,10,17,07,27,2.50
2013,10,17,07,28,2.50
2013,10,17,07,29,2.50
2013,10,17,07,30,2.40
2013,10,17,07,31,2.40
2013,10,17,07,32,2.40
2013,10,17,07,33,2.40
2013,10,17,07,34,2.40
2013,10,17,07,35,2.30
2013,10,17,07,36,2.30
2013,10,17,07,37,2.30
2013,10,17,07,38,2.30
2013,10,17,07,39,2.30
2013,10,17,07,40,2.30
2013,10,17,07,41,2.30
2013,10,17,07,42,2.40
2013,10,17,07,43,2.40
2013,10,17,07,44,2.40
2013,10,17,07,45,2.40
2013,10,17,07,46,2.40
2013,10,17,07,47,2.40
2013,10,17,07,48,2.40
2013,10,17,07,49,2.40
2013,10,17,07,50,2.40
2013,10,17,07,51,2.40
2013,10,17,07,52,2.40
2013,10,17,07,53,2.40
2013,10,17,07,54,2.40
2013,10,17,07,55,2.40
2013,10,17,07,56,2.40
2013,10,17,07,57,2.40
2013,10,17,07,58,2.40
2013,10,17,07,59,2.40
2013,10,17,08,00,2.40
2013,10,17,08,01,2.40
2013,10,17,08,02,2.40
2013,10,17,08,03,2.40
2013,10,17,08,04,2.40
2013,10,17,08,05,2.40
2013,10,17,08,06,2.40
2013,10,17,08,07,2.40
2013,10,17,08,08,2.40
2013,10,17,08,09,2.40
2013,10,17,08,10,2.40
2013,10,17,08,11,2.40
2013,10,17,08,12,2.40
2013,10,17,08,13,2.40
2013,10,17,08,14,2.40
2013,10,17,08,15,2.30
2013,10,17,08,16,2.30
2013,10,17,08,17,2.30
2013,10,17,08,18,2.30
2013,10,17,08,19,2.30
2013,10,17,08,20,2.30
2013,10,17,08,21,2.30
2013,10,17,08,22,2.30
2013,10,17,08,23,2.30
2013,10,17,08,24,2.30
2013,10,17,08,25,2.30
2013,10,17,08,26,2.30
2013,10,17,08,27,2.40
2013,10,17,08,28,2.40
2013,10,17,08,29,2.40
2013,10,17,08,30,2.50
2013,10,17,08,31,2.50
2013,10,17,08,32,2.60
2013,10,17,08,33,2.60
2013,10,17,08,34,2.70
2013,10,17,08,35,2.70
2013,10,17,08,36,2.70
2013,10,17,08,37,2.80
2013,10,17,08,38,2.80
2013,10,17,08,39,2.80
2013,10,17,08,40,2.80
2013,10,17,08,41,2.90
2013,10,17,08,42,2.90
2013,10,17,08,43,2.90
2013,10,17,08,44,2.90
2013,10,17,08,45,3.00
2013,10,17,08,46,3.00
2013,10,17,08,47,3.10
2013,10,17,08,48,3.10
2013,10,17,08,49,3.10
2013,10,17,08,50,3.20
2013,10,17,08,51,3.20
2013,10,17,08,52,3.20
2013,10,17,08,53,3.30
2013,10,17,08,54,3.30
2013,10,17,08,55,3.30
2013,10,17,08,56,3.30
2013,10,17,08,57,3.40
2013,10,17,08,58,3.40
2013,10,17,08,59,3.40
2013,10,17,09,00,3.50
2013,10,17,09,01,3.50
2013,10,17,09,02,3.50
2013,10,17,09,03,3.60
2013,10,17,09,04,3.60
2013,10,17,09,05,3.70
2013,10,17,09,06,3.70
2013,10,17,09,07,3.70
2013,10,17,09,08,3.80
2013,10,17,09,09,3.80
2013,10,17,09,10,3.90
2013,10,17,09,11,3.90
2013,10,17,09,12,4.00
2013,10,17,09,13,4.00
2013,10,17,09,14,4.10
2013,10,17,09,15,4.10
2013,10,17,09,16,4.10
2013,10,17,09,17,4.20
2013,10,17,09,18,4.20
2013,10,17,09,19,4.20
2013,10,17,09,20,4.30
2013,10,17,09,21,4.30
2013,10,17,09,22,4.40
2013,10,17,09,23,4.40
2013,10,17,09,24,4.50
2013,10,17,09,25,4.60
2013,10,17,09,26,4.60
2013,10,17,09,27,4.70
2013,10,17,09,28,4.70
2013,10,17,09,29,4.80
2013,10,17,09,30,4.90
2013,10,17,09,31,5.00
2013,10,17,09,32,5.00
2013,10,17,09,33,5.10
2013,10,17,09,34,5.30
2013,10,17,09,35,5.40
2013,10,17,09,36,5.50
2013,10,17,09,37,5.60
2013,10,17,09,38,5.70
2013,10,17,09,39,5.80
2013,10,17,09,40,5.80
2013,10,17,09,41,5.80
2013,10,17,09,42,5.80
2013,10,17,09,43,5.80
2013,10,17,09,44,5.80
2013,10,17,09,45,5.80
2013,10,17,09,46,5.80
2013,10,17,09,47,5.80
2013,10,17,09,48,5.90
2013,10,17,09,49,5.90
2013,10,17,09,50,5.90
2013,10,17,09,51,5.90
2013,10,17,09,52,6.00
2013,10,17,09,53,6.00
2013,10,17,09,54,6.10
2013,10,17,09,55,6.10
2013,10,17,09,56,6.20
2013,10,17,09,57,6.20
2013,10,17,09,58,6.30
2013,10,17,09,59,6.30
2013,10,17,10,00,6.40
2013,10,17,10,01,6.40
2013,10,17,10,02,6.50
2013,10,17,10,03,6.60
2013,10,17,10,04,6.70
2013,10,17,10,05,6.70
2013,10,17,10,06,6.80
2013,10,17,10,07,6.80
2013,10,17,10,08,6.80
2013,10,17,10,09,6.90
2013,10,17,10,10,7.00
2013,10,17,10,11,7.00
2013,10,17,10,12,7.10
2013,10,17,10,13,7.20
2013,10,17,10,14,7.20
2013,10,17,10,15,7.30
2013,10,17,10,16,7.40
2013,10,17,10,17,7.60
2013,10,17,10,18,7.70
2013,10,17,10,19,7.80
2013,10,17,10,20,7.90
2013,10,17,10,21,8.00
2013,10,17,10,22,8.00
2013,10,17,10,23,8.10
2013,10,17,10,24,8.10
2013,10,17,10,25,8.10
2013,10,17,10,26,8.20
2013,10,17,10,27,8.20
2013,10,17,10,28,8.30
2013,10,17,10,29,8.30
2013,10,17,10,30,8.30
2013,10,17,10,31,8.40
2013,10,17,10,32,8.50
2013,10,17,10,33,8.60
2013,10,17,10,34,8.70
2013,10,17,10,35,8.80
2013,10,17,10,36,8.80
2013,10,17,10,37,8.90
2013,10,17,10,38,8.90
2013,10,17,10,39,8.90
2013,10,17,10,40,9.00
2013,10,17,10,41,9.10
2013,10,17,10,42,9.10
2013,10,17,10,43,9.20
2013,10,17,10,44,9.20
2013,10,17,10,45,9.20
2013,10,17,10,46,9.20
2013,10,17,10,47,9.20
2013,10,17,10,48,9.20
2013,10,17,10,49,9.30
2013,10,17,10,50,9.30
2013,10,17,10,51,9.40
2013,10,17,10,52,9.40
2013,10,17,10,53,9.50
2013,10,17,10,54,9.60
2013,10,17,10,55,9.70
2013,10,17,10,56,9.70
2013,10,17,10,57,9.80
2013,10,17,10,58,9.80
2013,10,17,10,59,9.80
2013,10,17,11,00,9.80
2013,10,17,11,01,9.80
2013,10,17,11,02,9.80
2013,10,17,11,03,9.80
2013,10,17,11,04,9.90
2013,10,17,11,05,9.90
2013,10,17,11,06,10.00
2013,10,17,11,07,10.10
2013,10,17,11,08,10.20
2013,10,17,11,09,10.30
2013,10,17,11,10,10.40
2013,10,17,11,11,10.40
2013,10,17,11,12,10.50
2013,10,17,11,13,10.60
2013,10,17,11,14,10.70
2013,10,17,11,15,10.80
2013,10,17,11,16,10.90
2013,10,17,11,17,10.90
2013,10,17,11,18,11.00
2013,10,17,11,19,11.10
2013,10,17,11,20,11.20
2013,10,17,11,21,11.30
2013,10,17,11,22,11.40
2013,10,17,11,23,11.40
2013,10,17,11,24,11.50
2013,10,17,11,25,11.60
2013,10,17,11,26,11.70
2013,10,17,11,27,11.80
2013,10,17,11,28,11.80
2013,10,17,11,29,11.90
2013,10,17,11,30,12.00
2013,10,17,11,31,12.00
2013,10,17,11,32,12.10
2013,10,17,11,33,12.20
2013,10,17,11,34,12.30
2013,10,17,11,35,12.30
2013,10,17,11,36,12.40
2013,10,17,11,37,12.40
2013,10,17,11,38,12.50
2013,10,17,11,39,12.60
2013,10,17,11,40,12.60
2013,10,17,11,41,12.70
2013,10,17,11,42,12.70
2013,10,17,11,43,12.70
2013,10,17,11,44,12.80
2013,10,17,11,45,12.80
2013,10,17,11,46,12.90
2013,10,17,11,47,12.90
2013,10,17,11,48,13.00
2013,10,17,11,49,13.00
2013,10,17,11,50,13.10
2013,10,17,11,51,13.10
2013,10,17,11,52,13.20
2013,10,17,11,53,13.20
2013,10,17,11,54,13.30
2013,10,17,11,55,13.40
2013,10,17,11,56,13.50
2013,10,17,11,57,13.60
2013,10,17,11,58,13.70
2013,10,17,11,59,13.70
2013,10,17,12,00,13.80
2013,10,17,12,01,13.90
2013,10,17,12,02,14.00
2013,10,17,12,03,14.10
2013,10,17,12,04,14.10
2013,10,17,12,05,14.20
2013,10,17,12,06,14.20
2013,10,17,12,07,14.20
2013,10,17,12,08,14.20
2013,10,17,12,09,14.20
2013,10,17,12,10,14.10
2013,10,17,12,11,14.10
2013,10,17,12,12,14.20
2013,10,17,12,13,14.20
2013,10,17,12,14,14.20
2013,10,17,12,15,14.30
2013,10,17,12,16,14.30
2013,10,17,12,17,14.40
2013,10,17,12,18,14.40
2013,10,17,12,19,14.50
2013,10,17,12,20,14.50
2013,10,17,12,21,14.50
2013,10,17,12,22,14.60
2013,10,17,12,23,14.70
2013,10,17,12,24,14.80
2013,10,17,12,25,14.90
2013,10,17,12,26,14.90
2013,10,17,12,27,14.90
2013,10,17,12,28,14.90
2013,10,17,12,29,14.90
2013,10,17,12,30,15.00
2013,10,17,12,31,15.00
2013,10,17,12,32,15.00
2013,10,17,12,33,15.00
2013,10,17,12,34,15.00
2013,10,17,12,35,15.00
2013,10,17,12,36,15.00
2013,10,17,12,37,15.00
2013,10,17,12,38,15.00
2013,10,17,12,39,15.00
2013,10,17,12,40,15.00
2013,10,17,12,41,15.00
2013,10,17,12,42,15.00
2013,10,17,12,43,15.00
2013,10,17,12,44,15.10
2013,10,17,12,45,15.20
2013,10,17,12,46,15.30
2013,10,17,12,47,15.40
2013,10,17,12,48,15.50
2013,10,17,12,49,15.60
2013,10,17,12,50,15.60
2013,10,17,12,51,15.60
2013,10,17,12,52,15.60
2013,10,17,12,53,15.70
2013,10,17,12,54,15.70
2013,10,17,12,55,15.80
2013,10,17,12,56,15.80
2013,10,17,12,57,15.90
2013,10,17,12,58,16.00
2013,10,17,12,59,16.00
2013,10,17,13,00,16.00
2013,10,17,13,01,16.10
2013,10,17,13,02,16.10
2013,10,17,13,03,16.10
2013,10,17,13,04,16.20
2013,10,17,13,05,16.20
2013,10,17,13,06,16.20
2013,10,17,13,07,16.20
2013,10,17,13,08,16.30
2013,10,17,13,09,16.20
2013,10,17,13,10,16.10
2013,10,17,13,11,16.10
2013,10,17,13,12,16.00
2013,10,17,13,13,16.00
2013,10,17,13,14,16.00
2013,10,17,13,15,15.90
2013,10,17,13,16,15.90
2013,10,17,13,17,15.80
2013,10,17,13,18,15.80
2013,10,17,13,19,15.80
2013,10,17,13,20,15.90
2013,10,17,13,21,15.90
2013,10,17,13,22,16.00
2013,10,17,13,23,16.00
2013,10,17,13,24,16.00
2013,10,17,13,25,16.10
2013,10,17,13,26,16.10
2013,10,17,13,27,16.10
2013,10,17,13,28,16.20
2013,10,17,13,29,16.20
2013,10,17,13,30,16.30
2013,10,17,13,31,16.30
2013,10,17,13,32,16.40
2013,10,17,13,33,16.40
2013,10,17,13,34,16.50
2013,10,17,13,35,16.60
2013,10,17,13,36,16.70
2013,10,17,13,37,16.70
2013,10,17,13,38,16.60
2013,10,17,13,39,16.60
2013,10,17,13,40,16.50
2013,10,17,13,41,16.50
2013,10,17,13,42,16.40
2013,10,17,13,43,16.40
2013,10,17,13,44,16.50
2013,10,17,13,45,16.50
2013,10,17,13,46,16.60
2013,10,17,13,47,16.50
2013,10,17,13,48,16.50
2013,10,17,13,49,16.50
2013,10,17,13,50,16.50
2013,10,17,13,51,16.50
2013,10,17,13,52,16.60
2013,10,17,13,53,16.60
2013,10,17,13,54,16.60
2013,10,17,13,55,16.70
2013,10,17,13,56,16.70
2013,10,17,13,57,16.80
2013,10,17,13,58,16.80
2013,10,17,13,59,16.90
2013,10,17,14,00,16.90
2013,10,17,14,01,16.90
2013,10,17,14,02,16.90
2013,10,17,14,03,17.00
2013,10,17,14,04,16.90
2013,10,17,14,05,16.90
2013,10,17,14,06,16.90
2013,10,17,14,07,17.00
2013,10,17,14,08,17.00
2013,10,17,14,09,17.00
2013,10,17,14,10,17.10
2013,10,17,14,11,17.10
2013,10,17,14,12,17.20
2013,10,17,14,13,17.30
2013,10,17,14,14,17.30
2013,10,17,14,15,17.40
2013,10,17,14,16,17.40
2013,10,17,14,17,17.40
2013,10,17,14,18,17.40
2013,10,17,14,19,17.40
2013,10,17,14,20,17.40
2013,10,17,14,21,17.40
2013,10,17,14,22,17.40
2013,10,17,14,23,17.40
2013,10,17,14,24,17.40
2013,10,17,14,25,17.40
2013,10,17,14,26,17.40
2013,10,17,14,27,17.50
2013,10,17,14,28,17.50
2013,10,17,14,29,17.50
2013,10,17,14,30,17.50
2013,10,17,14,31,17.50
2013,10,17,14,32,17.50
2013,10,17,14,33,17.50
2013,10,17,14,34,17.50
2013,10,17,14,35,17.50
2013,10,17,14,36,17.50
2013,10,17,14,37,17.50
2013,10,17,14,38,17.50
2013,10,17,14,39,17.50
2013,10,17,14,40,17.40
2013,10,17,14,41,17.40
2013,10,17,14,42,17.40
2013,10,17,14,43,17.40
2013,10,17,14,44,17.40
2013,10,17,14,45,17.40
2013,10,17,14,46,17.50
2013,10,17,14,47,17.50
2013,10,17,14,48,17.60
2013,10,17,14,49,17.70
2013,10,17,14,50,17.70
2013,10,17,14,51,17.70
2013,10,17,14,52,17.80
2013,10,17,14,53,17.80
2013,10,17,14,54,17.90
2013,10,17,14,55,17.90
2013,10,17,14,56,18.00
2013,10,17,14,57,18.10
2013,10,17,14,58,18.10
2013,10,17,14,59,18.20
2013,10,17,15,00,18.20
2013,10,17,15,01,18.20
2013,10,17,15,02,18.30
2013,10,17,15,03,18.30
2013,10,17,15,04,18.30
2013,10,17,15,05,18.30
2013,10,17,15,06,18.30
2013,10,17,15,07,18.30
2013,10,17,15,08,18.40
2013,10,17,15,09,18.40
2013,10,17,15,10,18.40
2013,10,17,15,11,18.40
2013,10,17,15,12,18.40
2013,10,17,15,13,18.40
2013,10,17,15,14,18.50
2013,10,17,15,15,18.50
2013,10,17,15,16,18.50
2013,10,17,15,17,18.50
2013,10,17,15,18,18.50
2013,10,17,15,19,18.50
2013,10,17,15,20,18.50
2013,10,17,15,21,18.50
2013,10,17,15,22,18.40
2013,10,17,15,23,18.40
2013,10,17,15,24,18.40
2013,10,17,15,25,18.50
2013,10,17,15,26,18.50
2013,10,17,15,27,18.60
2013,10,17,15,28,18.60
2013,10,17,15,29,18.70
2013,10,17,15,30,18.70
2013,10,17,15,31,18.70
2013,10,17,15,32,18.70
2013,10,17,15,33,18.70
2013,10,17,15,34,18.60
2013,10,17,15,35,18.60
2013,10,17,15,36,18.50
2013,10,17,15,37,18.40
2013,10,17,15,38,18.40
2013,10,17,15,39,18.30
2013,10,17,15,40,18.30
2013,10,17,15,41,18.30
2013,10,17,15,42,18.30
2013,10,17,15,43,18.30
2013,10,17,15,44,18.30
2013,10,17,15,45,18.30
2013,10,17,15,46,18.30
2013,10,17,15,47,18.30
2013,10,17,15,48,18.30
2013,10,17,15,49,18.30
2013,10,17,15,50,18.20
2013,10,17,15,51,18.10
2013,10,17,15,52,18.10
2013,10,17,15,53,18.00
2013,10,17,15,54,17.90
2013,10,17,15,55,17.80
2013,10,17,15,56,17.80
2013,10,17,15,57,17.80
2013,10,17,15,58,17.70
2013,10,17,15,59,17.70
2013,10,17,16,00,17.70
2013,10,17,16,01,17.70
2013,10,17,16,02,17.60
2013,10,17,16,03,17.60
2013,10,17,16,04,17.60
2013,10,17,16,05,17.60
2013,10,17,16,06,17.60
2013,10,17,16,07,17.50
2013,10,17,16,08,17.50
2013,10,17,16,09,17.50
2013,10,17,16,10,17.50
2013,10,17,16,11,17.50
2013,10,17,16,12,17.50
2013,10,17,16,13,17.50
2013,10,17,16,14,17.60
2013,10,17,16,15,17.60
2013,10,17,16,16,17.60
2013,10,17,16,17,17.60
2013,10,17,16,18,17.60
2013,10,17,16,19,17.60
2013,10,17,16,20,17.60
2013,10,17,16,21,17.50
2013,10,17,16,22,17.50
2013,10,17,16,23,17.40
2013,10,17,16,24,17.40
2013,10,17,16,25,17.30
2013,10,17,16,26,17.30
2013,10,17,16,27,17.30
2013,10,17,16,28,17.20
2013,10,17,16,29,17.20
2013,10,17,16,30,17.20
2013,10,17,16,31,17.20
2013,10,17,16,32,17.20
2013,10,17,16,33,17.10
2013,10,17,16,34,17.10
2013,10,17,16,35,17.10
2013,10,17,16,36,17.10
2013,10,17,16,37,17.10
2013,10,17,16,38,17.00
2013,10,17,16,39,17.00
2013,10,17,16,40,17.00
2013,10,17,16,41,16.90
2013,10,17,16,42,16.90
2013,10,17,16,43,16.90
2013,10,17,16,44,16.80
2013,10,17,16,45,16.80
2013,10,17,16,46,16.80
2013,10,17,16,47,16.80
2013,10,17,16,48,16.80
2013,10,17,16,49,16.80
2013,10,17,16,50,16.80
2013,10,17,16,51,16.80
2013,10,17,16,52,16.80
2013,10,17,16,53,16.70
2013,10,17,16,54,16.70
2013,10,17,16,55,16.70
2013,10,17,16,56,16.70
2013,10,17,16,57,16.70
2013,10,17,16,58,16.60
2013,10,17,16,59,16.60
2013,10,17,17,00,16.60
2013,10,17,17,01,16.50
2013,10,17,17,02,16.50
2013,10,17,17,03,16.50
2013,10,17,17,04,16.40
2013,10,17,17,05,16.40
2013,10,17,17,06,16.40
2013,10,17,17,07,16.40
2013,10,17,17,08,16.30
2013,10,17,17,09,16.30
2013,10,17,17,10,16.30
2013,10,17,17,11,16.30
2013,10,17,17,12,16.20
2013,10,17,17,13,16.20
2013,10,17,17,14,16.20
2013,10,17,17,15,16.10
2013,10,17,17,16,16.10
2013,10,17,17,17,16.10
2013,10,17,17,18,16.10
2013,10,17,17,19,16.00
2013,10,17,17,20,16.00
2013,10,17,17,21,15.90
2013,10,17,17,22,15.90
2013,10,17,17,23,15.90
2013,10,17,17,24,15.90
2013,10,17,17,25,15.80
2013,10,17,17,26,15.80
2013,10,17,17,27,15.80
2013,10,17,17,28,15.70
2013,10,17,17,29,15.70
2013,10,17,17,30,15.70
2013,10,17,17,31,15.60
2013,10,17,17,32,15.60
2013,10,17,17,33,15.50
2013,10,17,17,34,15.50
2013,10,17,17,35,15.40
2013,10,17,17,36,15.40
2013,10,17,17,37,15.30
2013,10,17,17,38,15.30
2013,10,17,17,39,15.20
2013,10,17,17,40,15.20
2013,10,17,17,41,15.00
2013,10,17,17,42,15.00
2013,10,17,17,43,15.00
2013,10,17,17,44,15.00
2013,10,17,17,45,15.00
2013,10,17,17,46,15.00
2013,10,17,17,47,14.90
2013,10,17,17,48,14.80